Time,TemperatureF,DewpointF,PressureIn,WindDirection,WindDirectionDegrees,WindSpeedMPH,WindSpeedGustMPH,Humidity,HourlyPrecipIn,Conditions,Clouds,dailyrainin,SoftwareType,DateUTC
2013-03-18 00:02:00,33.9,29.3,29.87,ENE,72,6.9,6.9,83,0.00,RA,,0.00,WeatherDisplay:10.37,2013-03-18 05:02:00,
2013-03-18 00:07:00,33.8,29.5,29.87,East,84,9.2,9.2,84,0.00,RA,,0.00,WeatherDisplay:10.37,2013-03-18 05:07:00,
2013-03-18 00:13:00,33.7,29.4,29.87,East,84,12.7,12.7,84,0.00,CLR,,0.00,WeatherDisplay:10.37,2013-03-18 05:13:00,
2013-03-18 00:18:00,33.6,29.3,29.87,NE,52,5.8,5.8,84,0.00,CLR,,0.00,WeatherDisplay:10.37,2013-03-18 05:18:00,
2013-03-18 00:23:00,33.5,29.5,29.86,ENE,76,10.4,10.4,85,0.01,RA,,0.01,WeatherDisplay:10.37,2013-03-18 05:23:00,
2013-03-18 00:28:00,33.4,29.4,29.85,NE,53,6.9,6.9,85,0.01,RA,,0.01,WeatherDisplay:10.37,2013-03-18 05:28:00,
2013-03-18 00:33:00,33.3,29.3,29.85,East,98,7.0,7.0,85,0.01,,,0.01,WeatherDisplay:10.37,2013-03-18 05:33:00,
2013-03-18 00:38:00,33.1,29.4,29.86,ENE,78,11.5,11.5,86,0.01,CLR,,0.01,WeatherDisplay:10.37,2013-03-18 05:38:00,
2013-03-18 00:43:00,33.0,29.3,29.84,ENE,64,12.7,12.7,86,0.01,CLR,,0.01,WeatherDisplay:10.37,2013-03-18 05:43:00,
2013-03-18 00:48:00,32.9,29.2,29.83,ENE,64,12.7,12.7,86,0.00,CLR,,0.01,WeatherDisplay:10.37,2013-03-18 05:48:00,
2013-03-18 00:53:00,32.8,29.4,29.82,ENE,74,12.7,12.7,87,0.00,CLR,,0.01,WeatherDisplay:10.37,2013-03-18 05:53:00,
2013-03-18 00:59:00,32.8,29.4,29.81,East,92,11.5,11.5,87,0.00,CLR,,0.01,WeatherDisplay:10.37,2013-03-18 05:59:00,
2013-03-18 01:04:00,32.7,29.3,29.82,East,94,11.5,11.5,87,0.02,RA,,0.02,WeatherDisplay:10.37,2013-03-18 06:04:00,
2013-03-18 01:09:00,32.7,29.5,29.83,East,80,8.1,8.1,88,0.02,RA,,0.02,WeatherDisplay:10.37,2013-03-18 06:09:00,
2013-03-18 01:14:00,32.7,29.5,29.83,ENE,78,8.1,8.1,88,0.02,CLR,,0.02,WeatherDisplay:10.37,2013-03-18 06:14:00,
2013-03-18 01:20:00,32.7,29.5,29.82,ENE,73,12.7,12.7,88,0.02,CLR,,0.02,WeatherDisplay:10.37,2013-03-18 06:20:00,
2013-03-18 01:25:00,32.7,29.5,29.83,ESE,102,12.7,12.7,88,0.01,CLR,,0.02,WeatherDisplay:10.37,2013-03-18 06:25:00,
2013-03-18 01:30:00,32.7,29.5,29.83,ENE,70,11.5,11.5,88,0.01,CLR,,0.02,WeatherDisplay:10.37,2013-03-18 06:30:00,
2013-03-18 01:35:00,32.7,29.5,29.83,East,96,8.1,8.1,88,0.01,CLR,,0.02,WeatherDisplay:10.37,2013-03-18 06:35:00,
2013-03-18 01:41:00,32.7,29.5,29.83,East,89,11.5,11.5,88,0.01,CLR,,0.02,WeatherDisplay:10.37,2013-03-18 06:41:00,
2013-03-18 01:47:00,32.6,29.4,29.82,ENE,71,11.5,11.5,88,0.01,CLR,,0.02,WeatherDisplay:10.37,2013-03-18 06:47:00,
2013-03-18 01:52:00,32.6,29.4,29.82,East,94,9.2,9.2,88,0.01,CLR,,0.02,WeatherDisplay:10.37,2013-03-18 06:52:00,
2013-03-18 01:57:00,32.6,29.4,29.82,ENE,71,10.4,10.4,88,0.01,CLR,,0.02,WeatherDisplay:10.37,2013-03-18 06:57:00,
2013-03-18 02:02:00,32.6,29.7,29.82,ENE,63,8.1,8.1,89,0.00,CLR,,0.02,WeatherDisplay:10.37,2013-03-18 07:02:00,
2013-03-18 02:07:00,32.6,29.7,29.81,ENE,73,5.8,5.8,89,0.00,CLR,,0.02,WeatherDisplay:10.37,2013-03-18 07:07:00,
2013-03-18 02:12:00,32.6,29.7,29.81,ENE,76,13.0,13.0,89,0.00,CLR,,0.02,WeatherDisplay:10.37,2013-03-18 07:12:00,
2013-03-18 02:17:00,32.5,29.6,29.80,ESE,118,10.4,10.4,89,0.00,CLR,,0.02,WeatherDisplay:10.37,2013-03-18 07:17:00,
2013-03-18 02:22:00,32.5,29.6,29.80,East,96,15.0,15.0,89,0.00,CLR,,0.02,WeatherDisplay:10.37,2013-03-18 07:22:00,
2013-03-18 02:28:00,32.5,29.6,29.80,East,80,11.5,11.5,89,0.00,CLR,,0.02,WeatherDisplay:10.37,2013-03-18 07:28:00,
2013-03-18 02:33:00,32.5,29.6,29.79,ENE,75,10.4,10.4,89,0.00,CLR,,0.02,WeatherDisplay:10.37,2013-03-18 07:33:00,
2013-03-18 02:38:00,32.4,29.5,29.78,East,86,11.5,11.5,89,0.00,CLR,,0.02,WeatherDisplay:10.37,2013-03-18 07:38:00,
2013-03-18 02:44:00,32.4,29.5,29.78,East,92,7.0,7.0,89,0.00,CLR,,0.02,WeatherDisplay:10.37,2013-03-18 07:44:00,
2013-03-18 02:49:00,32.4,29.5,29.78,East,79,10.4,10.4,89,0.00,CLR,,0.02,WeatherDisplay:10.37,2013-03-18 07:49:00,
2013-03-18 02:54:00,32.3,29.4,29.77,East,93,11.5,11.5,89,0.00,CLR,,0.03,WeatherDisplay:10.37,2013-03-18 07:54:00,
2013-03-18 02:59:00,32.3,29.4,29.77,NE,38,6.0,6.0,89,0.01,RA,,0.03,WeatherDisplay:10.37,2013-03-18 07:59:00,
2013-03-18 03:04:00,32.3,29.4,29.77,East,82,13.8,13.8,89,0.01,RA,,0.03,WeatherDisplay:10.37,2013-03-18 08:04:00,
2013-03-18 03:09:00,32.3,29.4,29.76,ENE,72,11.5,11.5,89,0.01,CLR,,0.03,WeatherDisplay:10.37,2013-03-18 08:09:00,
2013-03-18 03:14:00,32.2,29.3,29.75,East,87,11.5,11.5,89,0.01,CLR,,0.03,WeatherDisplay:10.37,2013-03-18 08:14:00,
2013-03-18 03:20:00,32.2,29.3,29.75,East,86,12.7,12.7,89,0.01,CLR,,0.03,WeatherDisplay:10.37,2013-03-18 08:20:00,
2013-03-18 03:25:00,32.2,29.6,29.74,ENE,71,13.8,13.8,90,0.01,CLR,,0.03,WeatherDisplay:10.37,2013-03-18 08:25:00,
2013-03-18 03:30:00,32.2,29.6,29.73,East,80,11.5,11.5,90,0.01,CLR,,0.03,WeatherDisplay:10.37,2013-03-18 08:30:00,
2013-03-18 03:35:00,32.2,29.6,29.73,East,95,9.0,9.0,90,0.01,CLR,,0.03,WeatherDisplay:10.37,2013-03-18 08:35:00,
2013-03-18 03:40:00,32.2,29.6,29.72,ENE,63,11.5,11.5,90,0.01,CLR,,0.03,WeatherDisplay:10.37,2013-03-18 08:40:00,
2013-03-18 03:45:00,32.2,29.6,29.72,ENE,78,12.7,12.7,90,0.01,CLR,,0.03,WeatherDisplay:10.37,2013-03-18 08:45:00,
2013-03-18 03:50:00,32.2,29.6,29.71,East,83,11.5,11.5,90,0.01,CLR,,0.03,WeatherDisplay:10.37,2013-03-18 08:50:00,
2013-03-18 03:55:00,32.3,29.7,29.70,East,82,11.5,11.5,90,0.00,CLR,,0.03,WeatherDisplay:10.37,2013-03-18 08:55:00,
2013-03-18 04:01:00,32.3,29.7,29.70,ENE,77,13.8,13.8,90,0.00,CLR,,0.03,WeatherDisplay:10.37,2013-03-18 09:01:00,
2013-03-18 04:06:00,32.3,29.7,29.70,ENE,74,11.5,11.5,90,0.00,CLR,,0.03,WeatherDisplay:10.37,2013-03-18 09:06:00,
2013-03-18 04:11:00,32.3,29.7,29.70,East,82,12.0,12.0,90,0.00,CLR,,0.03,WeatherDisplay:10.37,2013-03-18 09:11:00,
2013-03-18 04:16:00,32.3,29.7,29.70,East,81,10.4,10.4,90,0.00,CLR,,0.03,WeatherDisplay:10.37,2013-03-18 09:16:00,
2013-03-18 04:22:00,32.4,29.8,29.70,ENE,72,12.0,12.0,90,0.00,CLR,,0.03,WeatherDisplay:10.37,2013-03-18 09:22:00,
2013-03-18 04:27:00,32.4,29.8,29.70,ENE,78,11.5,11.5,90,0.00,CLR,,0.03,WeatherDisplay:10.37,2013-03-18 09:27:00,
2013-03-18 04:32:00,32.4,29.8,29.69,ENE,69,15.0,15.0,90,0.00,CLR,,0.03,WeatherDisplay:10.37,2013-03-18 09:32:00,
2013-03-18 04:37:00,32.4,29.8,29.69,East,87,11.5,11.5,90,0.00,CLR,,0.03,WeatherDisplay:10.37,2013-03-18 09:37:00,
2013-03-18 04:42:00,32.4,29.8,29.69,NE,53,10.4,10.4,90,0.00,CLR,,0.03,WeatherDisplay:10.37,2013-03-18 09:42:00,
2013-03-18 04:47:00,32.4,30.1,29.69,East,85,10.4,10.4,91,0.00,CLR,,0.03,WeatherDisplay:10.37,2013-03-18 09:47:00,
2013-03-18 04:52:00,32.5,30.2,29.69,ESE,102,11.5,11.5,91,0.00,CLR,,0.03,WeatherDisplay:10.37,2013-03-18 09:52:00,
2013-03-18 04:57:00,32.5,30.2,29.69,East,83,8.0,8.0,91,0.00,CLR,,0.03,WeatherDisplay:10.37,2013-03-18 09:57:00,
2013-03-18 05:02:00,32.5,30.2,29.69,NE,37,11.5,11.5,91,0.00,CLR,,0.03,WeatherDisplay:10.37,2013-03-18 10:02:00,
2013-03-18 05:08:00,32.5,30.2,29.68,East,101,5.8,5.8,91,0.00,CLR,,0.03,WeatherDisplay:10.37,2013-03-18 10:08:00,
2013-03-18 05:13:00,32.6,30.0,29.68,ENE,65,6.9,6.9,90,0.00,CLR,,0.03,WeatherDisplay:10.37,2013-03-18 10:13:00,
2013-03-18 05:18:00,32.6,30.3,29.68,East,94,11.5,11.5,91,0.00,CLR,,0.03,WeatherDisplay:10.37,2013-03-18 10:18:00,
2013-03-18 05:23:00,32.6,30.3,29.68,East,101,5.8,5.8,91,0.00,CLR,,0.03,WeatherDisplay:10.37,2013-03-18 10:23:00,
2013-03-18 05:28:00,32.7,30.4,29.68,East,89,10.4,10.4,91,0.00,CLR,,0.03,WeatherDisplay:10.37,2013-03-18 10:28:00,
2013-03-18 05:33:00,32.7,30.4,29.67,East,92,10.4,10.4,91,0.00,CLR,,0.03,WeatherDisplay:10.37,2013-03-18 10:33:00,
2013-03-18 05:39:00,32.8,30.5,29.68,East,88,11.5,11.5,91,0.00,CLR,,0.03,WeatherDisplay:10.37,2013-03-18 10:39:00,
2013-03-18 05:44:00,32.8,30.5,29.68,East,90,7.0,7.0,91,0.00,CLR,,0.03,WeatherDisplay:10.37,2013-03-18 10:44:00,
2013-03-18 05:49:00,32.9,30.6,29.67,ENE,77,10.4,10.4,91,0.00,CLR,,0.03,WeatherDisplay:10.37,2013-03-18 10:49:00,
2013-03-18 05:54:00,32.9,30.6,29.67,East,79,10.4,10.4,91,0.00,CLR,,0.03,WeatherDisplay:10.37,2013-03-18 10:54:00,
2013-03-18 05:59:00,33.0,30.7,29.68,ENE,57,6.9,6.9,91,0.00,CLR,,0.03,WeatherDisplay:10.37,2013-03-18 10:59:00,
2013-03-18 06:05:00,33.0,30.7,29.67,ENE,78,10.4,10.4,91,0.00,CLR,,0.03,WeatherDisplay:10.37,2013-03-18 11:05:00,
2013-03-18 06:10:00,33.1,30.8,29.67,East,88,10.4,10.4,91,0.00,CLR,,0.03,WeatherDisplay:10.37,2013-03-18 11:10:00,
2013-03-18 06:15:00,33.1,30.8,29.67,East,92,5.8,5.8,91,0.00,CLR,,0.03,WeatherDisplay:10.37,2013-03-18 11:15:00,
2013-03-18 06:20:00,33.2,30.9,29.67,East,87,10.4,10.4,91,0.00,CLR,,0.03,WeatherDisplay:10.37,2013-03-18 11:20:00,
2013-03-18 06:25:00,33.2,30.9,29.67,East,87,5.8,5.8,91,0.00,CLR,,0.03,WeatherDisplay:10.37,2013-03-18 11:25:00,
2013-03-18 06:30:00,33.3,31.0,29.67,East,90,4.6,0.0,91,0.00,CLR,,0.03,WeatherDisplay:10.37,2013-03-18 11:30:00,
2013-03-18 06:35:00,33.3,31.0,29.67,East,98,0.0,0.0,91,0.00,CLR,,0.03,WeatherDisplay:10.37,2013-03-18 11:35:00,
2013-03-18 06:40:00,33.3,31.0,29.66,ENE,71,10.4,10.4,91,0.00,CLR,,0.03,WeatherDisplay:10.37,2013-03-18 11:40:00,
2013-03-18 06:46:00,33.3,31.0,29.67,East,90,4.6,4.6,91,0.00,CLR,,0.03,WeatherDisplay:10.37,2013-03-18 11:46:00,
2013-03-18 06:51:00,33.3,31.0,29.67,ENE,76,6.0,6.0,91,0.01,RA,,0.04,WeatherDisplay:10.37,2013-03-18 11:51:00,
2013-03-18 06:56:00,33.3,31.0,29.67,ENE,75,8.1,8.1,91,0.01,RA,,0.04,WeatherDisplay:10.37,2013-03-18 11:56:00,
2013-03-18 07:01:00,33.3,31.0,29.66,East,99,5.0,5.0,91,0.01,,,0.04,WeatherDisplay:10.37,2013-03-18 12:01:00,
2013-03-18 07:06:00,33.4,31.1,29.66,ESE,105,6.0,6.0,91,0.01,CLR,,0.04,WeatherDisplay:10.37,2013-03-18 12:06:00,
2013-03-18 07:12:00,33.4,31.1,29.66,East,80,0.0,0.0,91,0.02,RA,,0.05,WeatherDisplay:10.37,2013-03-18 12:12:00,
2013-03-18 07:17:00,33.4,31.1,29.65,East,79,9.2,9.2,91,0.02,,,0.05,WeatherDisplay:10.37,2013-03-18 12:17:00,
2013-03-18 07:22:00,33.4,31.1,29.65,East,80,5.0,5.0,91,0.02,CLR,,0.05,WeatherDisplay:10.37,2013-03-18 12:22:00,
2013-03-18 07:27:00,33.4,31.1,29.65,East,87,4.6,4.6,91,0.03,RA,,0.06,WeatherDisplay:10.37,2013-03-18 12:27:00,
2013-03-18 07:32:00,33.5,31.2,29.65,East,92,6.0,6.0,91,0.03,RA,,0.06,WeatherDisplay:10.37,2013-03-18 12:32:00,
2013-03-18 07:37:00,33.5,31.2,29.65,East,94,5.8,5.8,91,0.03,CLR,,0.06,WeatherDisplay:10.37,2013-03-18 12:37:00,
2013-03-18 07:42:00,33.6,31.3,29.65,East,96,4.6,4.6,91,0.03,CLR,,0.06,WeatherDisplay:10.37,2013-03-18 12:42:00,
2013-03-18 07:47:00,33.7,31.4,29.65,East,86,5.8,5.8,91,0.03,CLR,,0.06,WeatherDisplay:10.37,2013-03-18 12:47:00,
2013-03-18 07:53:00,33.7,31.4,29.65,East,86,0.0,0.0,91,0.03,RA,,0.07,WeatherDisplay:10.37,2013-03-18 12:53:00,
2013-03-18 07:58:00,33.8,31.7,29.65,East,88,6.9,6.9,92,0.03,RA,,0.07,WeatherDisplay:10.37,2013-03-18 12:58:00,
2013-03-18 08:03:00,33.8,31.7,29.65,East,100,5.8,5.8,92,0.03,,,0.07,WeatherDisplay:10.37,2013-03-18 13:03:00,
2013-03-18 08:08:00,33.9,31.8,29.64,East,81,0.0,0.0,92,0.02,CLR,,0.07,WeatherDisplay:10.37,2013-03-18 13:08:00,
2013-03-18 08:13:00,33.9,31.8,29.64,East,87,0.0,0.0,92,0.02,CLR,,0.07,WeatherDisplay:10.37,2013-03-18 13:13:00,
2013-03-18 08:19:00,34.0,31.9,29.64,East,84,0.0,0.0,92,0.02,CLR,,0.07,WeatherDisplay:10.37,2013-03-18 13:19:00,
2013-03-18 08:24:00,34.1,32.0,29.63,East,83,0.0,0.0,92,0.02,CLR,,0.07,WeatherDisplay:10.37,2013-03-18 13:24:00,
2013-03-18 08:29:00,34.3,32.2,29.63,East,82,0.0,0.0,92,0.01,CLR,,0.07,WeatherDisplay:10.37,2013-03-18 13:29:00,
2013-03-18 08:34:00,34.4,32.3,29.63,East,84,0.0,0.0,92,0.02,RA,,0.08,WeatherDisplay:10.37,2013-03-18 13:34:00,
2013-03-18 08:39:00,34.4,32.3,29.63,ENE,78,0.0,0.0,92,0.02,RA,,0.08,WeatherDisplay:10.37,2013-03-18 13:39:00,
2013-03-18 08:44:00,34.4,32.3,29.63,East,92,0.0,0.0,92,0.02,,,0.08,WeatherDisplay:10.37,2013-03-18 13:44:00,
2013-03-18 08:49:00,34.4,32.3,29.63,East,92,0.0,0.0,92,0.02,CLR,,0.08,WeatherDisplay:10.37,2013-03-18 13:49:00,
2013-03-18 08:54:00,34.4,32.3,29.63,ESE,103,0.0,0.0,92,0.01,CLR,,0.08,WeatherDisplay:10.37,2013-03-18 13:54:00,
2013-03-18 08:59:00,34.4,32.3,29.63,East,91,0.0,0.0,92,0.01,CLR,,0.08,WeatherDisplay:10.37,2013-03-18 13:59:00,
2013-03-18 09:05:00,34.5,32.4,29.63,ESE,121,0.0,0.0,92,0.01,CLR,,0.08,WeatherDisplay:10.37,2013-03-18 14:05:00,
2013-03-18 09:10:00,34.5,32.4,29.62,East,90,0.0,0.0,92,0.01,CLR,,0.08,WeatherDisplay:10.37,2013-03-18 14:10:00,
2013-03-18 09:15:00,34.6,32.5,29.62,East,94,0.0,0.0,92,0.01,CLR,,0.08,WeatherDisplay:10.37,2013-03-18 14:15:00,
2013-03-18 09:20:00,34.8,32.7,29.62,ESE,113,0.0,0.0,92,0.01,CLR,,0.08,WeatherDisplay:10.37,2013-03-18 14:20:00,
2013-03-18 09:25:00,34.9,32.8,29.62,ESE,113,0.0,0.0,92,0.01,CLR,,0.08,WeatherDisplay:10.37,2013-03-18 14:25:00,
2013-03-18 09:30:00,35.1,33.0,29.62,ESE,107,0.0,0.0,92,0.01,CLR,,0.08,WeatherDisplay:10.37,2013-03-18 14:30:00,
2013-03-18 09:35:00,35.2,33.1,29.62,ESE,115,0.0,0.0,92,0.00,CLR,,0.08,WeatherDisplay:10.37,2013-03-18 14:35:00,
2013-03-18 09:40:00,35.3,33.2,29.62,SE,138,0.0,0.0,92,0.00,CLR,,0.08,WeatherDisplay:10.37,2013-03-18 14:40:00,
2013-03-18 09:45:00,35.5,33.4,29.62,SE,136,0.0,0.0,92,0.00,CLR,,0.08,WeatherDisplay:10.37,2013-03-18 14:45:00,
2013-03-18 09:50:00,35.5,33.4,29.62,East,90,0.0,0.0,92,0.00,CLR,,0.08,WeatherDisplay:10.37,2013-03-18 14:50:00,
2013-03-18 09:56:00,35.6,33.5,29.61,ESE,105,0.0,0.0,92,0.00,CLR,,0.08,WeatherDisplay:10.37,2013-03-18 14:56:00,
2013-03-18 10:01:00,35.7,33.6,29.61,ESE,104,0.0,0.0,92,0.00,CLR,,0.08,WeatherDisplay:10.37,2013-03-18 15:01:00,
2013-03-18 10:06:00,35.8,33.7,29.62,ESE,105,0.0,0.0,92,0.00,CLR,,0.08,WeatherDisplay:10.37,2013-03-18 15:06:00,
2013-03-18 10:11:00,35.9,33.8,29.62,ESE,105,0.0,0.0,92,0.00,CLR,,0.08,WeatherDisplay:10.37,2013-03-18 15:11:00,
2013-03-18 10:16:00,36.0,33.9,29.62,SSE,152,0.0,0.0,92,0.00,CLR,,0.08,WeatherDisplay:10.37,2013-03-18 15:16:00,
2013-03-18 10:21:00,36.0,33.9,29.63,SSE,152,0.0,0.0,92,0.00,CLR,,0.08,WeatherDisplay:10.37,2013-03-18 15:21:00,
2013-03-18 10:26:00,36.1,34.0,29.63,SSW,192,0.0,0.0,92,0.00,CLR,,0.08,WeatherDisplay:10.37,2013-03-18 15:26:00,
2013-03-18 10:31:00,36.2,34.1,29.64,SSW,196,0.0,0.0,92,0.00,CLR,,0.08,WeatherDisplay:10.37,2013-03-18 15:31:00,
2013-03-18 10:36:00,36.3,34.2,29.63,SSW,196,0.0,0.0,92,0.00,CLR,,0.08,WeatherDisplay:10.37,2013-03-18 15:36:00,
2013-03-18 10:42:00,36.5,34.4,29.62,SSW,196,0.0,0.0,92,0.00,CLR,,0.08,WeatherDisplay:10.37,2013-03-18 15:42:00,
2013-03-18 10:47:00,36.6,34.5,29.63,SSW,195,0.0,0.0,92,0.00,CLR,,0.08,WeatherDisplay:10.37,2013-03-18 15:47:00,
2013-03-18 10:52:00,36.8,34.7,29.63,South,171,0.0,0.0,92,0.00,CLR,,0.08,WeatherDisplay:10.37,2013-03-18 15:52:00,
2013-03-18 10:57:00,36.8,34.7,29.63,South,178,0.0,0.0,92,0.00,CLR,,0.08,WeatherDisplay:10.37,2013-03-18 15:57:00,
2013-03-18 11:02:00,36.9,34.8,29.62,South,180,0.0,0.0,92,0.00,CLR,,0.08,WeatherDisplay:10.37,2013-03-18 16:02:00,
2013-03-18 11:07:00,37.1,35.0,29.61,South,179,0.0,0.0,92,0.00,CLR,,0.08,WeatherDisplay:10.37,2013-03-18 16:07:00,
2013-03-18 11:13:00,37.3,35.2,29.61,South,177,0.0,0.0,92,0.00,CLR,,0.08,WeatherDisplay:10.37,2013-03-18 16:13:00,
2013-03-18 11:18:00,37.5,35.4,29.61,SW,227,0.0,0.0,92,0.00,CLR,,0.08,WeatherDisplay:10.37,2013-03-18 16:18:00,
2013-03-18 11:23:00,37.6,35.5,29.62,South,182,0.0,0.0,92,0.00,CLR,,0.08,WeatherDisplay:10.37,2013-03-18 16:23:00,
2013-03-18 11:28:00,37.7,35.6,29.62,SSW,197,0.0,0.0,92,0.00,CLR,,0.08,WeatherDisplay:10.37,2013-03-18 16:28:00,
2013-03-18 11:34:00,37.9,35.8,29.62,WSW,249,0.0,0.0,92,0.00,CLR,,0.08,WeatherDisplay:10.37,2013-03-18 16:34:00,
2013-03-18 11:39:00,38.0,35.9,29.62,SW,233,4.0,4.0,92,0.00,CLR,,0.08,WeatherDisplay:10.37,2013-03-18 16:39:00,
2013-03-18 11:44:00,38.2,36.1,29.61,SW,220,3.5,3.5,92,0.00,CLR,,0.08,WeatherDisplay:10.37,2013-03-18 16:44:00,
2013-03-18 11:49:00,38.1,36.0,29.61,WSW,238,5.8,5.8,92,0.00,CLR,,0.08,WeatherDisplay:10.37,2013-03-18 16:49:00,
2013-03-18 11:54:00,38.1,36.0,29.61,WSW,248,8.1,8.1,92,0.00,CLR,,0.08,WeatherDisplay:10.37,2013-03-18 16:54:00,
2013-03-18 12:00:00,38.3,36.2,29.61,SW,219,0.0,0.9,92,0.00,CLR,,0.08,WeatherDisplay:10.37,2013-03-18 17:00:00,
2013-03-18 12:05:00,38.4,36.3,29.61,WSW,237,9.2,9.2,92,0.00,CLR,,0.08,WeatherDisplay:10.37,2013-03-18 17:05:00,
2013-03-18 12:10:00,38.5,36.4,29.61,SW,231,8.1,8.1,92,0.00,CLR,,0.08,WeatherDisplay:10.37,2013-03-18 17:10:00,
2013-03-18 12:15:00,38.6,36.5,29.61,WSW,250,3.5,3.5,92,0.00,CLR,,0.08,WeatherDisplay:10.37,2013-03-18 17:15:00,
2013-03-18 12:20:00,38.6,36.5,29.61,West,281,6.9,6.9,92,0.00,CLR,,0.08,WeatherDisplay:10.37,2013-03-18 17:20:00,
2013-03-18 12:25:00,38.6,36.5,29.61,WSW,237,12.7,12.7,92,0.00,CLR,,0.08,WeatherDisplay:10.37,2013-03-18 17:25:00,
2013-03-18 12:30:00,38.6,36.5,29.61,WNW,282,6.9,6.9,92,0.00,CLR,,0.08,WeatherDisplay:10.37,2013-03-18 17:30:00,
2013-03-18 12:35:00,38.5,36.4,29.58,WNW,290,2.3,0.0,92,0.00,CLR,,0.08,WeatherDisplay:10.37,2013-03-18 17:35:00,
2013-03-18 12:40:00,38.5,36.4,29.62,SW,234,13.0,13.0,92,0.00,CLR,,0.08,WeatherDisplay:10.37,2013-03-18 17:40:00,
2013-03-18 12:46:00,38.3,36.2,29.62,WSW,254,11.5,11.5,92,0.00,CLR,,0.08,WeatherDisplay:10.37,2013-03-18 17:46:00,
2013-03-18 12:51:00,38.3,36.2,29.63,West,273,11.5,11.5,92,0.00,CLR,,0.08,WeatherDisplay:10.37,2013-03-18 17:51:00,
2013-03-18 12:56:00,38.3,36.2,29.62,WSW,257,9.2,9.2,92,0.00,CLR,,0.08,WeatherDisplay:10.37,2013-03-18 17:56:00,
2013-03-18 13:01:00,38.3,36.2,29.64,West,273,12.7,12.7,92,0.00,CLR,,0.08,WeatherDisplay:10.37,2013-03-18 18:01:00,
2013-03-18 13:06:00,38.4,36.3,29.64,West,278,12.7,12.7,92,0.00,CLR,,0.08,WeatherDisplay:10.37,2013-03-18 18:06:00,
2013-03-18 13:11:00,38.4,36.3,29.64,West,279,10.4,10.4,92,0.00,CLR,,0.08,WeatherDisplay:10.37,2013-03-18 18:11:00,
2013-03-18 13:16:00,38.5,36.4,29.64,NW,319,11.5,11.5,92,0.00,CLR,,0.08,WeatherDisplay:10.37,2013-03-18 18:16:00,
2013-03-18 13:22:00,38.3,36.2,29.64,WNW,286,17.3,17.3,92,0.00,CLR,,0.08,WeatherDisplay:10.37,2013-03-18 18:22:00,
2013-03-18 13:27:00,38.2,36.1,29.64,NW,309,10.4,10.4,92,0.00,CLR,,0.08,WeatherDisplay:10.37,2013-03-18 18:27:00,
2013-03-18 13:32:00,38.2,36.1,29.64,WNW,295,9.2,9.2,92,0.00,CLR,,0.08,WeatherDisplay:10.37,2013-03-18 18:32:00,
2013-03-18 13:37:00,38.3,36.2,29.64,West,272,11.5,11.5,92,0.00,CLR,,0.08,WeatherDisplay:10.37,2013-03-18 18:37:00,
2013-03-18 13:42:00,38.2,36.1,29.64,West,260,10.0,10.0,92,0.00,CLR,,0.08,WeatherDisplay:10.37,2013-03-18 18:42:00,
2013-03-18 13:47:00,38.3,36.2,29.64,West,271,11.5,11.5,92,0.00,CLR,,0.08,WeatherDisplay:10.37,2013-03-18 18:47:00,
2013-03-18 13:52:00,38.5,36.4,29.64,WNW,294,11.5,11.5,92,0.00,CLR,,0.08,WeatherDisplay:10.37,2013-03-18 18:52:00,
2013-03-18 13:58:00,38.4,36.3,29.64,WNW,284,12.7,12.7,92,0.00,CLR,,0.08,WeatherDisplay:10.37,2013-03-18 18:58:00,
2013-03-18 14:03:00,38.4,36.0,29.64,WSW,258,15.0,15.0,91,0.00,CLR,,0.08,WeatherDisplay:10.37,2013-03-18 19:03:00,
2013-03-18 14:08:00,38.5,36.1,29.64,West,280,10.4,10.4,91,0.00,CLR,,0.08,WeatherDisplay:10.37,2013-03-18 19:08:00,
2013-03-18 14:13:00,38.6,36.2,29.65,West,281,13.8,13.8,91,0.00,CLR,,0.08,WeatherDisplay:10.37,2013-03-18 19:13:00,
2013-03-18 14:18:00,38.6,36.2,29.65,WNW,294,13.8,13.8,91,0.00,CLR,,0.08,WeatherDisplay:10.37,2013-03-18 19:18:00,
2013-03-18 14:23:00,38.4,35.7,29.65,West,280,16.1,16.1,90,0.00,CLR,,0.08,WeatherDisplay:10.37,2013-03-18 19:23:00,
2013-03-18 14:28:00,38.5,35.8,29.64,NW,307,15.0,15.0,90,0.00,CLR,,0.08,WeatherDisplay:10.37,2013-03-18 19:28:00,
2013-03-18 14:33:00,38.6,35.6,29.64,NW,321,16.1,16.1,89,0.00,CLR,,0.08,WeatherDisplay:10.37,2013-03-18 19:33:00,
2013-03-18 14:39:00,38.6,35.6,29.64,NW,319,13.8,13.8,89,0.00,CLR,,0.08,WeatherDisplay:10.37,2013-03-18 19:39:00,
2013-03-18 14:44:00,38.6,35.6,29.64,WNW,297,12.7,12.7,89,0.00,CLR,,0.08,WeatherDisplay:10.37,2013-03-18 19:44:00,
2013-03-18 14:49:00,38.4,35.2,29.65,WSW,257,15.0,15.0,88,0.00,CLR,,0.08,WeatherDisplay:10.37,2013-03-18 19:49:00,
2013-03-18 14:54:00,38.4,35.2,29.65,West,276,18.4,18.4,88,0.00,CLR,,0.08,WeatherDisplay:10.37,2013-03-18 19:54:00,
2013-03-18 14:59:00,38.3,34.8,29.65,WNW,287,15.0,15.0,87,0.00,CLR,,0.08,WeatherDisplay:10.37,2013-03-18 19:59:00,
2013-03-18 15:04:00,38.2,34.7,29.65,West,263,16.1,16.1,87,0.00,CLR,,0.08,WeatherDisplay:10.37,2013-03-18 20:04:00,
2013-03-18 15:09:00,38.2,34.7,29.66,North,355,11.5,11.5,87,0.00,CLR,,0.08,WeatherDisplay:10.37,2013-03-18 20:09:00,
2013-03-18 15:14:00,38.1,34.3,29.66,NNW,329,19.6,19.6,86,0.00,CLR,,0.08,WeatherDisplay:10.37,2013-03-18 20:14:00,
2013-03-18 15:20:00,38.2,34.4,29.66,West,279,12.7,12.7,86,0.00,CLR,,0.08,WeatherDisplay:10.37,2013-03-18 20:20:00,
2013-03-18 15:25:00,38.0,34.2,29.66,WNW,286,16.1,16.1,86,0.00,CLR,,0.08,WeatherDisplay:10.37,2013-03-18 20:25:00,
2013-03-18 15:30:00,37.8,34.0,29.66,WNW,287,19.6,19.6,86,0.00,CLR,,0.08,WeatherDisplay:10.37,2013-03-18 20:30:00,
2013-03-18 15:35:00,37.6,33.8,29.66,WNW,290,15.0,15.0,86,0.00,CLR,,0.08,WeatherDisplay:10.37,2013-03-18 20:35:00,
2013-03-18 15:40:00,37.6,34.1,29.66,WNW,303,17.0,17.0,87,0.00,CLR,,0.08,WeatherDisplay:10.37,2013-03-18 20:40:00,
2013-03-18 15:46:00,37.6,34.1,29.66,WSW,250,13.8,13.8,87,0.00,CLR,,0.08,WeatherDisplay:10.37,2013-03-18 20:46:00,
2013-03-18 15:51:00,37.9,34.7,29.66,West,265,11.5,11.5,88,0.00,CLR,,0.08,WeatherDisplay:10.37,2013-03-18 20:51:00,
2013-03-18 15:56:00,38.0,34.5,29.67,WNW,297,15.0,15.0,87,0.00,CLR,,0.08,WeatherDisplay:10.37,2013-03-18 20:56:00,
2013-03-18 16:01:00,38.1,34.6,29.67,WNW,298,13.0,13.0,87,0.00,CLR,,0.08,WeatherDisplay:10.37,2013-03-18 21:01:00,
2013-03-18 16:06:00,38.2,34.7,29.68,NW,311,19.6,19.6,87,0.00,CLR,,0.08,WeatherDisplay:10.37,2013-03-18 21:06:00,
2013-03-18 16:12:00,38.3,34.8,29.68,WNW,283,13.8,13.8,87,0.00,CLR,,0.08,WeatherDisplay:10.37,2013-03-18 21:12:00,
2013-03-18 16:17:00,38.2,34.4,29.68,NW,312,17.3,17.3,86,0.00,CLR,,0.08,WeatherDisplay:10.37,2013-03-18 21:17:00,
2013-03-18 16:22:00,38.4,34.6,29.68,WNW,292,8.1,8.1,86,0.00,CLR,,0.08,WeatherDisplay:10.37,2013-03-18 21:22:00,
2013-03-18 16:27:00,38.3,34.5,29.68,NW,307,11.0,11.0,86,0.00,CLR,,0.08,WeatherDisplay:10.37,2013-03-18 21:27:00,
2013-03-18 16:33:00,38.4,34.6,29.68,West,275,17.0,17.0,86,0.00,CLR,,0.08,WeatherDisplay:10.37,2013-03-18 21:33:00,
2013-03-18 16:38:00,38.5,34.4,29.68,West,277,11.5,11.5,85,0.00,CLR,,0.08,WeatherDisplay:10.37,2013-03-18 21:38:00,
2013-03-18 16:43:00,38.6,34.5,29.68,West,265,17.3,17.3,85,0.00,CLR,,0.08,WeatherDisplay:10.37,2013-03-18 21:43:00,
2013-03-18 16:48:00,38.6,34.5,29.69,NW,307,17.3,17.3,85,0.00,CLR,,0.08,WeatherDisplay:10.37,2013-03-18 21:48:00,
2013-03-18 16:53:00,38.7,34.3,29.69,NW,309,17.3,17.3,84,0.00,CLR,,0.08,WeatherDisplay:10.37,2013-03-18 21:53:00,
2013-03-18 16:59:00,38.8,34.4,29.69,WNW,299,17.3,17.3,84,0.00,CLR,,0.08,WeatherDisplay:10.37,2013-03-18 21:59:00,
2013-03-18 17:04:00,38.8,34.4,29.70,West,270,18.4,18.4,84,0.00,CLR,,0.08,WeatherDisplay:10.37,2013-03-18 22:04:00,
2013-03-18 17:09:00,38.9,34.5,29.70,WNW,298,12.7,12.7,84,0.00,CLR,,0.08,WeatherDisplay:10.37,2013-03-18 22:09:00,
2013-03-18 17:14:00,39.0,34.6,29.70,WNW,299,19.6,19.6,84,0.00,CLR,,0.08,WeatherDisplay:10.37,2013-03-18 22:14:00,
2013-03-18 17:19:00,39.0,34.3,29.70,West,259,15.0,15.0,83,0.00,CLR,,0.08,WeatherDisplay:10.37,2013-03-18 22:19:00,
2013-03-18 17:24:00,39.1,34.4,29.70,West,279,16.1,16.1,83,0.00,CLR,,0.08,WeatherDisplay:10.37,2013-03-18 22:24:00,
2013-03-18 17:30:00,39.1,34.4,29.70,West,273,12.7,12.7,83,0.00,CLR,,0.08,WeatherDisplay:10.37,2013-03-18 22:30:00,
2013-03-18 17:35:00,39.0,34.3,29.70,West,279,12.7,12.7,83,0.00,CLR,,0.08,WeatherDisplay:10.37,2013-03-18 22:35:00,
2013-03-18 17:40:00,39.0,34.3,29.70,WNW,290,17.3,17.3,83,0.00,CLR,,0.08,WeatherDisplay:10.37,2013-03-18 22:40:00,
2013-03-18 17:45:00,39.0,34.3,29.71,West,259,11.5,11.5,83,0.00,CLR,,0.08,WeatherDisplay:10.37,2013-03-18 22:45:00,
2013-03-18 17:50:00,38.9,34.2,29.71,NW,305,16.1,16.1,83,0.00,CLR,,0.08,WeatherDisplay:10.37,2013-03-18 22:50:00,
2013-03-18 17:56:00,38.9,34.2,29.72,West,264,13.0,13.0,83,0.00,CLR,,0.08,WeatherDisplay:10.37,2013-03-18 22:56:00,
2013-03-18 18:01:00,38.9,34.2,29.72,West,272,11.5,11.5,83,0.00,CLR,,0.08,WeatherDisplay:10.37,2013-03-18 23:01:00,
2013-03-18 18:06:00,38.8,34.1,29.72,West,273,19.6,19.6,83,0.00,CLR,,0.08,WeatherDisplay:10.37,2013-03-18 23:06:00,
2013-03-18 18:11:00,38.8,34.1,29.73,NW,321,16.1,16.1,83,0.00,CLR,,0.08,WeatherDisplay:10.37,2013-03-18 23:11:00,
2013-03-18 18:16:00,38.8,34.1,29.73,NW,306,11.5,11.5,83,0.00,CLR,,0.08,WeatherDisplay:10.37,2013-03-18 23:16:00,
2013-03-18 18:22:00,38.8,34.1,29.73,WNW,290,6.9,7.3,83,0.00,CLR,,0.08,WeatherDisplay:10.37,2013-03-18 23:22:00,
2013-03-18 18:27:00,38.7,34.0,29.73,WNW,288,11.5,11.5,83,0.00,CLR,,0.08,WeatherDisplay:10.37,2013-03-18 23:27:00,
2013-03-18 18:32:00,38.7,33.7,29.73,WNW,292,16.1,16.1,82,0.00,CLR,,0.08,WeatherDisplay:10.37,2013-03-18 23:32:00,
2013-03-18 18:37:00,38.8,33.8,29.74,WNW,300,5.8,5.8,82,0.00,CLR,,0.08,WeatherDisplay:10.37,2013-03-18 23:37:00,
2013-03-18 18:42:00,38.7,33.7,29.73,WNW,303,12.7,12.7,82,0.00,CLR,,0.08,WeatherDisplay:10.37,2013-03-18 23:42:00,
2013-03-18 18:48:00,38.7,33.7,29.74,West,263,11.0,11.0,82,0.00,CLR,,0.08,WeatherDisplay:10.37,2013-03-18 23:48:00,
2013-03-18 18:53:00,38.6,33.3,29.74,West,276,6.9,6.9,81,0.00,CLR,,0.08,WeatherDisplay:10.37,2013-03-18 23:53:00,
2013-03-18 18:58:00,38.5,33.2,29.74,West,281,0.0,0.0,81,0.00,CLR,,0.08,WeatherDisplay:10.37,2013-03-18 23:58:00,
2013-03-18 19:03:00,38.3,33.3,29.74,West,273,3.5,3.5,82,0.00,CLR,,0.08,WeatherDisplay:10.37,2013-03-19 00:03:00,
2013-03-18 19:08:00,38.1,33.1,29.74,WNW,289,5.8,5.8,82,0.00,CLR,,0.08,WeatherDisplay:10.37,2013-03-19 00:08:00,
2013-03-18 19:14:00,38.0,33.0,29.74,West,268,8.1,8.1,82,0.00,CLR,,0.08,WeatherDisplay:10.37,2013-03-19 00:14:00,
2013-03-18 19:19:00,37.9,32.9,29.75,West,266,0.0,0.0,82,0.00,CLR,,0.08,WeatherDisplay:10.37,2013-03-19 00:19:00,
2013-03-18 19:24:00,37.8,32.8,29.75,WSW,255,0.0,0.0,82,0.00,CLR,,0.08,WeatherDisplay:10.37,2013-03-19 00:24:00,
2013-03-18 19:29:00,37.7,33.0,29.75,West,263,0.0,0.0,83,0.00,CLR,,0.08,WeatherDisplay:10.37,2013-03-19 00:29:00,
2013-03-18 19:34:00,37.7,33.0,29.76,WSW,254,0.0,0.0,83,0.00,CLR,,0.08,WeatherDisplay:10.37,2013-03-19 00:34:00,
2013-03-18 19:39:00,37.5,32.8,29.76,WSW,257,0.0,0.0,83,0.00,CLR,,0.08,WeatherDisplay:10.37,2013-03-19 00:39:00,
2013-03-18 19:44:00,37.4,33.0,29.76,West,270,0.0,0.0,84,0.00,CLR,,0.08,WeatherDisplay:10.37,2013-03-19 00:44:00,
2013-03-18 19:50:00,37.2,32.8,29.76,WSW,258,0.0,0.0,84,0.00,CLR,,0.08,WeatherDisplay:10.37,2013-03-19 00:50:00,
2013-03-18 19:55:00,37.1,33.0,29.76,WSW,257,0.0,0.0,85,0.00,CLR,,0.08,WeatherDisplay:10.37,2013-03-19 00:55:00,
2013-03-18 20:00:00,37.0,32.9,29.76,WSW,250,0.0,0.0,85,0.00,CLR,,0.08,WeatherDisplay:10.37,2013-03-19 01:00:00,
2013-03-18 20:05:00,37.0,32.9,29.76,WSW,250,0.0,0.0,85,0.00,CLR,,0.08,WeatherDisplay:10.37,2013-03-19 01:05:00,
2013-03-18 20:10:00,36.9,33.1,29.77,West,259,0.0,0.0,86,0.00,CLR,,0.08,WeatherDisplay:10.37,2013-03-19 01:10:00,
2013-03-18 20:15:00,36.9,33.1,29.77,West,266,0.0,0.0,86,0.00,CLR,,0.08,WeatherDisplay:10.37,2013-03-19 01:15:00,
2013-03-18 20:21:00,37.0,33.2,29.77,West,268,0.0,0.0,86,0.00,CLR,,0.08,WeatherDisplay:10.37,2013-03-19 01:21:00,
2013-03-18 20:26:00,37.0,33.2,29.77,SW,234,0.0,0.0,86,0.00,CLR,,0.08,WeatherDisplay:10.37,2013-03-19 01:26:00,
2013-03-18 20:31:00,36.9,33.1,29.78,WSW,257,0.0,0.0,86,0.00,CLR,,0.08,WeatherDisplay:10.37,2013-03-19 01:31:00,
2013-03-18 20:36:00,36.9,33.1,29.78,WSW,245,0.0,0.0,86,0.00,CLR,,0.08,WeatherDisplay:10.37,2013-03-19 01:36:00,
2013-03-18 20:42:00,37.3,33.8,29.79,NW,321,10.0,10.0,87,0.00,CLR,,0.08,WeatherDisplay:10.37,2013-03-19 01:42:00,
2013-03-18 20:47:00,37.8,34.0,29.79,WNW,288,13.8,13.8,86,0.00,CLR,,0.08,WeatherDisplay:10.37,2013-03-19 01:47:00,
2013-03-18 20:52:00,37.3,33.2,29.80,NW,318,17.3,17.3,85,0.00,CLR,,0.08,WeatherDisplay:10.37,2013-03-19 01:52:00,
2013-03-18 20:57:00,36.0,31.0,29.81,North,10,15.0,15.0,82,0.00,CLR,,0.08,WeatherDisplay:10.37,2013-03-19 01:57:00,
2013-03-18 21:02:00,34.4,29.2,29.81,NW,304,15.0,15.0,81,0.00,CLR,,0.08,WeatherDisplay:10.37,2013-03-19 02:02:00,
2013-03-18 21:07:00,33.8,28.3,29.81,NW,315,16.1,16.1,80,0.00,CLR,,0.08,WeatherDisplay:10.37,2013-03-19 02:07:00,
2013-03-18 21:12:00,33.2,27.7,29.81,NNW,327,11.5,11.5,80,0.00,CLR,,0.08,WeatherDisplay:10.37,2013-03-19 02:12:00,
2013-03-18 21:18:00,32.8,27.0,29.82,NW,318,12.7,12.7,79,0.00,CLR,,0.08,WeatherDisplay:10.37,2013-03-19 02:18:00,
2013-03-18 21:23:00,32.4,26.6,29.82,NNW,329,15.0,15.0,79,0.00,CLR,,0.08,WeatherDisplay:10.37,2013-03-19 02:23:00,
2013-03-18 21:28:00,32.1,26.3,29.82,NW,310,13.8,13.8,79,0.00,CLR,,0.08,WeatherDisplay:10.37,2013-03-19 02:28:00,
2013-03-18 21:33:00,31.9,26.4,29.83,WNW,302,15.0,15.0,80,0.00,CLR,,0.08,WeatherDisplay:10.37,2013-03-19 02:33:00,
2013-03-18 21:38:00,31.8,26.0,29.83,NW,309,16.1,16.1,79,0.00,CLR,,0.08,WeatherDisplay:10.37,2013-03-19 02:38:00,
2013-03-18 21:44:00,31.8,26.0,29.83,NW,306,15.0,15.0,79,0.00,CLR,,0.08,WeatherDisplay:10.37,2013-03-19 02:44:00,
2013-03-18 21:49:00,31.7,25.9,29.83,WNW,301,17.3,17.3,79,0.00,CLR,,0.08,WeatherDisplay:10.37,2013-03-19 02:49:00,
2013-03-18 21:54:00,31.6,25.8,29.83,NW,317,16.1,16.1,79,0.00,CLR,,0.08,WeatherDisplay:10.37,2013-03-19 02:54:00,
2013-03-18 21:59:00,31.5,25.4,29.84,NW,324,13.8,13.8,78,0.00,CLR,,0.08,WeatherDisplay:10.37,2013-03-19 02:59:00,
2013-03-18 22:05:00,31.3,24.9,29.84,West,276,15.0,15.0,77,0.00,CLR,,0.08,WeatherDisplay:10.37,2013-03-19 03:05:00,
2013-03-18 22:10:00,31.1,24.7,29.84,WNW,289,10.4,10.4,77,0.00,CLR,,0.08,WeatherDisplay:10.37,2013-03-19 03:10:00,
2013-03-18 22:15:00,31.0,24.6,29.84,NW,313,10.4,10.4,77,0.00,CLR,,0.08,WeatherDisplay:10.37,2013-03-19 03:15:00,
2013-03-18 22:20:00,30.9,24.5,29.85,WNW,302,11.5,11.5,77,0.00,CLR,,0.08,WeatherDisplay:10.37,2013-03-19 03:20:00,
2013-03-18 22:25:00,30.8,24.7,29.85,WNW,292,16.1,16.1,78,0.00,CLR,,0.08,WeatherDisplay:10.37,2013-03-19 03:25:00,
2013-03-18 22:30:00,30.7,24.7,29.86,WNW,284,18.0,18.0,78,0.00,CLR,,0.08,WeatherDisplay:10.37,2013-03-19 03:30:00,
2013-03-18 22:35:00,30.2,23.9,29.86,NW,321,18.4,18.4,77,0.00,CLR,,0.08,WeatherDisplay:10.37,2013-03-19 03:35:00,
2013-03-18 22:41:00,29.9,23.6,29.86,NNW,332,15.0,15.0,77,0.00,CLR,,0.08,WeatherDisplay:10.37,2013-03-19 03:41:00,
2013-03-18 22:46:00,29.7,23.1,29.86,West,259,17.3,17.3,76,0.00,CLR,,0.08,WeatherDisplay:10.37,2013-03-19 03:46:00,
2013-03-18 22:51:00,29.6,23.0,29.86,WSW,252,19.6,19.6,76,0.00,CLR,,0.08,WeatherDisplay:10.37,2013-03-19 03:51:00,
2013-03-18 22:56:00,29.5,22.9,29.86,NW,307,19.6,19.6,76,0.00,CLR,,0.08,WeatherDisplay:10.37,2013-03-19 03:56:00,
2013-03-18 23:00:00,29.4,22.8,29.86,NW,304,15.0,15.0,76,0.00,CLR,,0.08,WeatherDisplay:10.37,2013-03-19 04:00:00,
2013-03-18 23:05:00,29.2,22.9,29.87,NW,317,12.0,12.0,77,0.00,CLR,,0.08,WeatherDisplay:10.37,2013-03-19 04:05:00,
2013-03-18 23:10:00,29.0,22.7,29.87,NW,313,12.7,12.7,77,0.00,CLR,,0.08,WeatherDisplay:10.37,2013-03-19 04:10:00,
2013-03-18 23:15:00,28.8,22.5,29.87,NW,322,13.8,13.8,77,0.00,CLR,,0.08,WeatherDisplay:10.37,2013-03-19 04:15:00,
2013-03-18 23:20:00,28.5,22.2,29.87,NW,322,19.6,19.6,77,0.00,CLR,,0.08,WeatherDisplay:10.37,2013-03-19 04:20:00,
2013-03-18 23:25:00,28.0,21.4,29.87,NW,321,14.0,14.6,76,0.00,CLR,,0.08,WeatherDisplay:10.37,2013-03-19 04:25:00,
2013-03-18 23:31:00,27.8,20.9,29.87,NW,313,19.6,19.6,75,0.00,CLR,,0.08,WeatherDisplay:10.37,2013-03-19 04:31:00,
2013-03-18 23:36:00,27.5,20.3,29.88,WNW,302,21.9,21.9,74,0.00,CLR,,0.08,WeatherDisplay:10.37,2013-03-19 04:36:00,
2013-03-18 23:41:00,27.4,19.9,29.88,WNW,288,21.0,21.0,73,0.00,CLR,,0.08,WeatherDisplay:10.37,2013-03-19 04:41:00,
2013-03-18 23:46:00,27.2,19.7,29.88,WNW,292,19.6,19.6,73,0.00,CLR,,0.08,WeatherDisplay:10.37,2013-03-19 04:46:00,
2013-03-18 23:51:00,27.1,19.6,29.88,NW,319,19.6,19.6,73,0.00,CLR,,0.08,WeatherDisplay:10.37,2013-03-19 04:51:00,
2013-03-18 23:57:00,27.1,19.6,29.88,NNW,329,18.4,18.4,73,0.00,CLR,,0.08,WeatherDisplay:10.37,2013-03-19 04:57:00,